EW5580 Weather Reports


time (UTC)temp
F
wind
direction
speed
knots
gust
knots
rain 1hr
in
rain 24hr
in
rain mn
in
humidity
%
barometer
mb
20260505024551 55 360 0.0 3.5 0.00 0.00 0.00 69 1009.4
20260505023050 56 360 0.0 1.7 0.00 0.00 0.00 67 1009.5
20260505021552 56 360 0.0 1.7 0.00 0.00 0.00 65 1009.5
20260505020050 57 360 0.0 1.7 0.00 0.00 0.00 63 1009.4
20260505014549 58 360 0.0 1.7 0.00 0.00 0.00 61 1009.4
20260505013048 58 360 0.0 3.5 0.00 0.00 0.00 59 1009.4
20260505011606 59 360 0.0 4.3 0.00 0.00 0.00 58 1009.0
20260505010050 59 360 0.9 3.5 0.00 0.00 0.00 57 1008.8
20260505004548 60 360 0.0 2.6 0.00 0.00 0.00 55 1008.5
20260505003053 61 360 0.0 4.3 0.00 0.00 0.00 54 1008.2
20260505001558 62 360 0.0 7.0 0.00 0.00 0.00 52 1007.6
20260505000103 62 278 0.9 10.4 0.00 0.00 0.00 51 1007.3
20260504234545 63 360 0.9 5.2 0.00 0.00 0.00 50 1007.1
20260504233102 64 360 0.9 9.6 0.00 0.00 0.00 49 1006.9
20260504231545 65 146 0.9 7.0 0.00 0.00 0.00 48 1006.8
20260504230044 66 243 0.0 6.1 0.00 0.00 0.00 47 1006.5
20260504224544 67 232 2.6 8.7 0.00 0.00 0.00 47 1006.2
20260504223042 68 128 2.6 11.3 0.00 0.00 0.00 44 1006.0
20260504221543 69 276 2.6 10.4 0.00 0.00 0.00 42 1006.0
20260504220041 70 209 2.6 8.7 0.00 0.00 0.00 41 1005.9
20260504214540 70 190 3.5 10.4 0.00 0.00 0.00 40 1005.9
20260504213039 71 257 4.3 12.2 0.00 0.00 0.00 37 1005.9
20260504211538 73 281 0.9 5.2 0.00 0.00 0.00 35 1005.8
20260504210037 73 256 0.0 9.6 0.00 0.00 0.00 36 1005.7
20260504204536 73 227 0.9 7.8 0.00 0.00 0.00 34 1005.5
20260504203036 73 297 6.1 14.8 0.00 0.00 0.00 33 1005.8
20260504201535 73 275 1.7 11.3 0.00 0.00 0.00 35 1005.7
20260504200035 73 321 2.6 9.6 0.00 0.00 0.00 33 1005.8
20260504194534 73 267 4.3 13.9 0.00 0.00 0.00 34 1006.0
20260504193034 73 276 5.2 17.4 0.00 0.00 0.00 31 1005.8
20260504191530 73 245 1.7 11.3 0.00 0.00 0.00 35 1005.9
20260504190028 72 249 3.5 12.2 0.00 0.00 0.00 36 1005.9
20260504184527 72 215 2.6 12.2 0.00 0.00 0.00 32 1006.1
20260504183024 71 261 5.2 16.5 0.00 0.00 0.00 33 1006.0
20260504181523 71 293 1.7 11.3 0.00 0.00 0.00 36 1006.3
20260504180022 71 259 2.6 13.9 0.00 0.00 0.00 33 1006.4
20260504174519 71 267 3.5 13.0 0.00 0.00 0.00 33 1006.6
20260504173021 70 280 7.8 15.6 0.00 0.00 0.00 35 1006.7
20260504171523 70 159 6.1 14.8 0.00 0.00 0.00 34 1006.6
20260504100103 46 297 0.9 3.5 0.00 0.02 0.00 63 1009.8
20260504090105 43 271 0.0 0.0 0.00 0.02 0.00 73 1009.6
20260504081552 43 271 0.0 0.0 0.00 0.02 0.00 75 1009.7
20260504050023 39 270 0.0 1.7 0.00 0.02 0.00 75 1009.4
20260504044524 38 273 0.0 0.9 0.00 0.02 0.00 81 1009.5
20260504043030 37 273 0.0 0.0 0.00 0.02 0.00 80 1009.5
20260504041522 38 273 0.0 0.0 0.00 0.02 0.00 81 1009.4
20260504040015 37 272 0.0 3.5 0.00 0.02 0.00 81 1009.2
20260504034511 36 317 0.0 0.0 0.00 0.02 0.02 83 1009.1
20260504033013 36 317 0.0 0.0 0.00 0.02 0.02 82 1009.0
20260504031509 36 317 0.0 0.0 0.00 0.02 0.02 80 1008.9
20260504030012 37 318 0.0 0.0 0.00 0.02 0.02 78 1008.8